Regional Weather Roundup
Issued by NWS Binghamton, NY

Home | Current Version | Previous Version | Text Only | Print | Product List | Glossary On
Versions: 1 2 3 4 5 6 7 8 9 10 11 12 13 14 15 16 17 18 19 20 21 22 23 24 25 26 27 28 29 30 31 32 33 34 35 36 37 38 39 40 41 42 43 44 45 46 47 48 49
000
ASUS41 KBGM 221210
RWRBGM
RWRBGM
BINGHAMTON REGIONAL WEATHER ROUNDUP
NATIONAL WEATHER SERVICE BINGHAMTON NY
700 AM EST MON DEC 22 2014

Note: "fair" indicates few or no clouds below 12,000 feet with no
significant weather and/or obstructions to visibility.

* = Station(s) that does not report precipitation, such as rain,
snow, etc, also no thunder or fog.

!NYZ009-015>018-022>025-036-037-044>046-055>057-062-221300
...CENTRAL NEW YORK...

CITY           SKY/WX    TMP DP  RH WIND       PRES   REMARKS
BINGHAMTON     CLOUDY    27  23  85 SE5       30.22R WCI  22
CORTLAND       CLOUDY    32  27  80 CALM      30.25S
DANSVILLE      CLEAR     26  19  74 SE13      30.24R WCI  15
ELMIRA         CLOUDY    26  21  81 S7        30.27R WCI  18
ITHACA         CLOUDY    30  25  82 S9        30.26R WCI  22
HAMILTON       CLOUDY    30  27  86 S3        30.25F
MONTICELLO     CLOUDY    28  27  93 E7        30.27S WCI  21
NORWICH        CLOUDY    28  27  93 CALM      30.27S
ONEONTA        CLOUDY    27  25  93 CALM      30.23S
PENN YAN       PTCLDY    23  19  85 S3        30.24S
ROME           CLOUDY    29  23  78 E7        30.32S WCI  22
SIDNEY         CLOUDY    28  28 100 CALM      30.27S
SYRACUSE       CLOUDY    29  24  82 E7        30.28F WCI  22
$$

!PAZ038>040-043-044-047-048-072-221300
...NORTHEAST PENNSYLVANIA...

CITY           SKY/WX    TMP DP  RH WIND       PRES   REMARKS
HAZLETON       CLOUDY    30  27  86 SE6       30.26R WCI  24
SCRANTON       CLOUDY    31  24  75 CALM      30.26S
TOWANDA*       CLOUDY    27  21  80 CALM      30.28S
$$
&&
KEY
WCI = WIND CHILL INDEX
VSB = VISIBILITY
HX  = HEAT INDEX
$$



USA.gov is the U.S. government's official web portal to all federal, state and local government web resources and services.